Time,TemperatureF,DewpointF,PressureIn,WindDirection,WindDirectionDegrees,WindSpeedMPH,WindSpeedGustMPH,Humidity,HourlyPrecipIn,Conditions,Clouds,dailyrainin,SolarRadiationWatts/m^2,SoftwareType,DateUTC
2013-04-23 00:00:00,50.0,14.0,-100.00,ESE,102,1.0,5.0,24,-99.99,,,0.00,0.000000,,2013-04-23 06:00:00,
2013-04-23 01:00:00,45.0,-99.9,-100.00,North,-999,-999.0,-999.0,-999,-99.99,,,-99.99,,,2013-04-23 07:00:00,
2013-04-23 01:52:00,45.0,-99.9,-100.00,North,-999,-999.0,-999.0,-999,-99.99,,,-99.99,,,2013-04-23 07:52:00,
2013-04-23 02:00:00,45.0,20.0,-100.00,ESE,122,2.0,8.0,37,-99.99,,,-99.99,0.000000,,2013-04-23 08:00:00,
2013-04-23 03:00:00,44.0,17.0,-100.00,ESE,107,2.0,7.0,33,-99.99,,,0.00,0.000000,,2013-04-23 09:00:00,
2013-04-23 04:00:00,44.0,20.0,-100.00,East,91,1.0,5.0,38,-99.99,,,0.00,0.000000,,2013-04-23 10:00:00,
2013-04-23 05:00:00,42.0,19.0,-100.00,East,92,1.0,5.0,38,-99.99,,,0.00,0.000000,,2013-04-23 11:00:00,
2013-04-23 06:00:00,42.0,20.0,-100.00,East,97,1.0,5.0,41,-99.99,,,0.00,0.000000,,2013-04-23 12:00:00,
2013-04-23 07:00:00,42.0,20.0,-100.00,ESE,104,1.0,5.0,41,-99.99,,,0.00,18.600000,,2013-04-23 13:00:00,
2013-04-23 08:00:00,44.0,20.0,-100.00,ENE,65,1.0,6.0,39,-99.99,,,0.00,94.599998,,2013-04-23 14:00:00,
2013-04-23 09:00:00,44.0,21.0,-100.00,NNE,14,2.0,7.0,39,-99.99,,,-99.99,117.199997,,2013-04-23 15:00:00,
2013-04-23 10:00:00,47.0,22.0,-100.00,NNE,12,3.0,10.0,36,-99.99,,,-99.99,311.100006,,2013-04-23 16:00:00,
2013-04-23 11:00:00,44.0,23.0,-100.00,NNE,22,3.0,7.0,43,-99.99,,,-99.99,411.200012,,2013-04-23 17:00:00,
2013-04-23 12:00:00,43.0,23.0,-100.00,North,11,3.0,8.0,44,-99.99,,,0.00,564.400024,,2013-04-23 18:00:00,
2013-04-23 13:00:00,40.0,22.0,-100.00,NNE,17,3.0,9.0,50,-99.99,,,0.00,280.500000,,2013-04-23 19:00:00,
2013-04-23 14:00:00,33.0,29.0,-100.00,NE,35,2.0,10.0,85,-99.99,,,0.01,91.599998,,2013-04-23 20:00:00,
2013-04-23 14:42:00,33.0,29.0,-100.00,NE,35,2.0,10.0,85,-99.99,,,0.01,91.599998,,2013-04-23 20:42:00,
2013-04-23 14:52:00,33.0,29.0,-100.00,NE,35,2.0,10.0,85,-99.99,,,0.01,91.599998,,2013-04-23 20:52:00,
2013-04-23 15:00:00,33.0,31.0,-100.00,NE,49,3.0,10.0,95,-99.99,,,0.01,17.400000,,2013-04-23 21:00:00,
2013-04-23 16:00:00,35.0,33.0,-100.00,East,89,3.0,10.0,92,-99.99,,,0.01,40.299999,,2013-04-23 22:00:00,
2013-04-23 17:00:00,38.0,32.0,-100.00,ENE,78,2.0,8.0,77,-99.99,,,0.01,288.200012,,2013-04-23 23:00:00,